| time (UTC) | temp C | wind direction | speed KPH | gust KPH | rain 1hr cm | rain 24hr cm | rain mn cm | humidity % | barometer mb |
| 20260508184554 | 20 | 201 | 8.0 | 19.3 | 0.00 | 0.46 | 0.05 | 45 | 1016.1 |
| 20260508183050 | 18 | 148 | 3.2 | 9.7 | 0.00 | 0.46 | 0.05 | 48 | 1016.3 |
| 20260508181551 | 18 | 96 | 1.6 | 9.7 | 0.00 | 0.46 | 0.05 | 50 | 1016.7 |
| 20260508180052 | 18 | 174 | 3.2 | 9.7 | 0.00 | 0.46 | 0.05 | 48 | 1016.7 |
| 20260508174603 | 18 | 77 | 1.6 | 16.1 | 0.00 | 0.46 | 0.05 | 46 | 1016.7 |
| 20260508173051 | 18 | 196 | 3.2 | 9.7 | 0.00 | 0.46 | 0.05 | 47 | 1017.2 |
| 20260508171554 | 18 | 105 | 4.8 | 14.5 | 0.00 | 0.46 | 0.05 | 49 | 1017.2 |
| 20260508170054 | 18 | 165 | 4.8 | 12.9 | 0.00 | 0.46 | 0.05 | 49 | 1017.4 |
| 20260508164552 | 18 | 30 | 3.2 | 9.7 | 0.00 | 0.46 | 0.05 | 45 | 1017.6 |
| 20260508163051 | 18 | 82 | 1.6 | 11.3 | 0.00 | 0.46 | 0.05 | 45 | 1017.7 |
| 20260508161548 | 19 | 200 | 3.2 | 14.5 | 0.00 | 0.46 | 0.05 | 46 | 1017.9 |
| 20260508160052 | 18 | 0 | 3.2 | 12.9 | 0.00 | 0.46 | 0.05 | 44 | 1018.1 |
| 20260508154551 | 19 | 313 | 1.6 | 11.3 | 0.00 | 0.46 | 0.05 | 44 | 1018.5 |
| 20260508153051 | 18 | 98 | 3.2 | 12.9 | 0.00 | 0.46 | 0.05 | 44 | 1018.6 |
| 20260508151557 | 17 | 52 | 4.8 | 11.3 | 0.00 | 0.46 | 0.05 | 50 | 1018.6 |
| 20260508150047 | 17 | 52 | 4.8 | 9.7 | 0.00 | 0.46 | 0.05 | 48 | 1018.8 |
| 20260508144552 | 15 | 143 | 0.0 | 9.7 | 0.00 | 0.46 | 0.05 | 53 | 1018.9 |
| 20260508143059 | 16 | 0 | 3.2 | 8.0 | 0.00 | 0.46 | 0.05 | 53 | 1018.9 |
| 20260508141553 | 16 | 66 | 1.6 | 8.0 | 0.00 | 0.46 | 0.05 | 47 | 1019.0 |
| 20260508140056 | 15 | 279 | 0.0 | 6.4 | 0.00 | 0.46 | 0.05 | 54 | 1019.0 |
| 20260508134552 | 15 | 0 | 0.0 | 4.8 | 0.00 | 0.48 | 0.05 | 58 | 1019.0 |
| 20260508133050 | 14 | 0 | 0.0 | 4.8 | 0.00 | 0.48 | 0.05 | 59 | 1018.9 |
| 20260508131557 | 14 | 0 | 0.0 | 0.0 | 0.00 | 0.48 | 0.05 | 68 | 1019.0 |
| 20260508130105 | 13 | 0 | 0.0 | 0.0 | 0.00 | 0.48 | 0.05 | 73 | 1018.8 |
| 20260508124556 | 12 | 0 | 0.0 | 0.0 | 0.00 | 0.56 | 0.05 | 82 | 1018.7 |
| 20260508123057 | 10 | 0 | 0.0 | 0.0 | 0.00 | 0.56 | 0.05 | 89 | 1018.6 |
| 20260508121557 | 8 | 0 | 0.0 | 0.0 | 0.00 | 0.56 | 0.05 | 94 | 1018.6 |
| 20260508120057 | 8 | 0 | 0.0 | 0.0 | 0.00 | 0.56 | 0.05 | 94 | 1018.2 |
| 20260508114554 | 6 | 0 | 0.0 | 0.0 | 0.03 | 0.86 | 0.05 | 94 | 1018.1 |
| 20260508113050 | 5 | 0 | 0.0 | 0.0 | 0.03 | 0.86 | 0.05 | 93 | 1017.9 |
| 20260508111552 | 5 | 0 | 0.0 | 0.0 | 0.03 | 0.86 | 0.05 | 92 | 1017.7 |
| 20260508110055 | 5 | 0 | 0.0 | 0.0 | 0.03 | 0.86 | 0.05 | 92 | 1017.4 |
| 20260508104604 | 5 | 0 | 0.0 | 0.0 | 0.00 | 0.84 | 0.03 | 92 | 1017.2 |
| 20260508103056 | 5 | 0 | 0.0 | 0.0 | 0.03 | 0.84 | 0.03 | 92 | 1016.8 |
| 20260508101554 | 5 | 0 | 0.0 | 0.0 | 0.03 | 0.84 | 0.03 | 92 | 1016.5 |
| 20260508100054 | 5 | 0 | 0.0 | 0.0 | 0.03 | 0.84 | 0.03 | 92 | 1016.5 |
| 20260508094551 | 5 | 0 | 0.0 | 0.0 | 0.03 | 0.84 | 0.03 | 92 | 1016.4 |
| 20260508093056 | 5 | 0 | 0.0 | 0.0 | 0.00 | 0.81 | 0.00 | 92 | 1016.3 |
| 20260508091604 | 6 | 0 | 0.0 | 0.0 | 0.00 | 0.81 | 0.00 | 92 | 1016.2 |
| 20260508090104 | 6 | 0 | 0.0 | 0.0 | 0.00 | 0.81 | 0.00 | 91 | 1016.2 |
| 20260508084553 | 6 | 0 | 0.0 | 0.0 | 0.00 | 0.86 | 0.00 | 92 | 1015.9 |
| 20260508083055 | 6 | 0 | 0.0 | 0.0 | 0.00 | 0.86 | 0.00 | 91 | 1016.1 |
| 20260508081602 | 6 | 0 | 0.0 | 0.0 | 0.00 | 0.86 | 0.00 | 91 | 1015.9 |
| 20260508080056 | 6 | 0 | 0.0 | 0.0 | 0.00 | 0.86 | 0.00 | 91 | 1015.9 |
| 20260508074551 | 6 | 0 | 0.0 | 0.0 | 0.00 | 0.86 | 0.00 | 91 | 1015.9 |
| 20260508073100 | 6 | 0 | 0.0 | 0.0 | 0.00 | 0.86 | 0.00 | 91 | 1015.7 |
| 20260508071607 | 7 | 0 | 0.0 | 0.0 | 0.00 | 0.86 | 0.00 | 90 | 1015.7 |
| 20260508064553 | 7 | 0 | 0.0 | 0.0 | 0.00 | 0.86 | 0.00 | 90 | 1015.3 |
| 20260508063050 | 7 | 0 | 0.0 | 0.0 | 0.00 | 0.86 | 0.00 | 90 | 1015.3 |
| 20260508061551 | 7 | 0 | 0.0 | 0.0 | 0.00 | 0.86 | 0.00 | 90 | 1015.1 |
| 20260508060055 | 7 | 0 | 0.0 | 0.0 | 0.00 | 0.86 | 0.00 | 90 | 1015.3 |
| 20260508054602 | 8 | 0 | 0.0 | 0.0 | 0.00 | 0.99 | 0.00 | 89 | 1015.3 |
| 20260508053052 | 8 | 0 | 0.0 | 0.0 | 0.00 | 0.99 | 0.00 | 90 | 1015.2 |
| 20260508051550 | 8 | 0 | 0.0 | 0.0 | 0.00 | 0.99 | 0.00 | 89 | 1015.2 |
| 20260508050051 | 8 | 0 | 0.0 | 0.0 | 0.00 | 0.99 | 0.00 | 89 | 1015.1 |
| 20260508044557 | 8 | 0 | 0.0 | 0.0 | 0.00 | 1.09 | 0.00 | 89 | 1014.9 |
| 20260508043048 | 8 | 0 | 0.0 | 0.0 | 0.00 | 1.09 | 0.00 | 88 | 1014.8 |
| 20260508041641 | 9 | 0 | 0.0 | 0.0 | 0.00 | 1.09 | 0.00 | 88 | 1014.7 |
| 20260508040100 | 9 | 0 | 0.0 | 0.0 | 0.00 | 1.09 | 0.00 | 87 | 1014.9 |
| 20260508034548 | 10 | 0 | 0.0 | 0.0 | 0.00 | 1.09 | 1.09 | 85 | 1014.8 |
| 20260508033112 | 10 | 0 | 0.0 | 0.0 | 0.00 | 1.09 | 1.09 | 83 | 1014.9 |
| 20260508031549 | 11 | 0 | 0.0 | 0.0 | 0.00 | 1.09 | 1.09 | 81 | 1014.8 |
| 20260508030106 | 11 | 0 | 0.0 | 0.0 | 0.00 | 1.09 | 1.09 | 79 | 1014.6 |
| 20260508024610 | 12 | 0 | 0.0 | 0.0 | 0.00 | 1.19 | 1.09 | 77 | 1014.3 |
| 20260508023048 | 12 | 0 | 0.0 | 0.0 | 0.00 | 1.19 | 1.09 | 75 | 1014.1 |
| 20260508021548 | 12 | 318 | 0.0 | 8.0 | 0.00 | 1.19 | 1.09 | 75 | 1014.0 |
| 20260508020105 | 12 | 0 | 0.0 | 4.8 | 0.00 | 1.19 | 1.09 | 76 | 1013.9 |
| 20260508014556 | 12 | 0 | 0.0 | 0.0 | 0.00 | 1.37 | 1.09 | 76 | 1013.6 |
| 20260508013106 | 13 | 0 | 0.0 | 3.2 | 0.00 | 1.37 | 1.09 | 74 | 1013.3 |
| 20260508011557 | 13 | 219 | 0.0 | 3.2 | 0.00 | 1.37 | 1.09 | 72 | 1013.3 |
| 20260508010059 | 14 | 0 | 0.0 | 4.8 | 0.00 | 1.37 | 1.09 | 72 | 1013.0 |
| 20260508004548 | 15 | 312 | 0.0 | 9.7 | 0.00 | 1.60 | 1.09 | 67 | 1012.7 |
| 20260508003050 | 15 | 14 | 1.6 | 11.3 | 0.00 | 1.60 | 1.09 | 64 | 1012.5 |
| 20260508001559 | 15 | 53 | 4.8 | 14.5 | 0.00 | 1.60 | 1.09 | 63 | 1012.2 |
| 20260508000056 | 16 | 261 | 8.0 | 20.9 | 0.00 | 1.60 | 1.09 | 61 | 1011.8 |
| 20260507234551 | 16 | 311 | 4.8 | 24.1 | 0.00 | 1.68 | 1.09 | 63 | 1012.0 |
| 20260507233048 | 16 | 275 | 8.0 | 25.7 | 0.00 | 1.68 | 1.09 | 63 | 1011.7 |
| 20260507231548 | 17 | 34 | 4.8 | 29.0 | 0.00 | 1.68 | 1.09 | 63 | 1011.6 |
| 20260507230053 | 17 | 338 | 4.8 | 20.9 | 0.00 | 1.68 | 1.09 | 63 | 1011.4 |
| 20260507224548 | 17 | 283 | 4.8 | 25.7 | 0.00 | 1.75 | 1.09 | 63 | 1011.0 |
| 20260507223053 | 18 | 231 | 11.3 | 29.0 | 0.00 | 1.75 | 1.09 | 62 | 1010.6 |
| 20260507221552 | 20 | 355 | 6.4 | 33.8 | 0.00 | 1.75 | 1.09 | 59 | 1010.3 |
| 20260507220302 | 21 | 59 | 9.7 | 27.4 | 0.00 | 1.75 | 1.09 | 57 | 1010.0 |
| 20260507214548 | 22 | 342 | 9.7 | 20.9 | 0.00 | 1.75 | 1.09 | 56 | 1009.5 |
| 20260507213057 | 22 | 291 | 9.7 | 27.4 | 0.00 | 1.75 | 1.09 | 57 | 1009.5 |
| 20260507211555 | 22 | 268 | 9.7 | 25.7 | 0.00 | 1.75 | 1.09 | 57 | 1009.2 |
| 20260507210054 | 22 | 265 | 8.0 | 16.1 | 0.00 | 1.75 | 1.09 | 59 | 1008.9 |
| 20260507204550 | 23 | 309 | 6.4 | 22.5 | 0.00 | 1.75 | 1.09 | 59 | 1008.9 |
| 20260507203050 | 24 | 303 | 9.7 | 24.1 | 0.00 | 1.75 | 1.09 | 58 | 1008.6 |
| 20260507201555 | 23 | 304 | 6.4 | 19.3 | 0.00 | 1.75 | 1.09 | 64 | 1008.6 |
| 20260507200055 | 24 | 291 | 4.8 | 16.1 | 0.00 | 1.75 | 1.09 | 64 | 1008.3 |
| 20260507194549 | 24 | 305 | 4.8 | 19.3 | 0.00 | 1.75 | 1.09 | 68 | 1008.3 |
| 20260507193052 | 23 | 296 | 1.6 | 8.0 | 0.05 | 1.75 | 1.09 | 77 | 1008.4 |
| 20260507191551 | 21 | 141 | 3.2 | 8.0 | 0.41 | 1.75 | 1.09 | 91 | 1008.6 |
| 20260507190051 | 20 | 192 | 3.2 | 8.0 | 0.41 | 1.75 | 1.09 | 92 | 1008.9 |